When you browse on this site, cookies collect data to enhance your experience and personalize the content and advertising you see.
Visit our Privacy Policy to learn more. By continuing to use the site, you agree to this use of cookies and data.
  • En España
  • Lista de países
  • Para 7 días
  • Temperatura del agua
  • Mapa Satelital
  • El tiempo en el mapa
  • Informadores
  • user-avatar
    Iniciar sesión

    Tiempo cada hora Batina

    Hoy, 18 Diciembre, Martes

    Tiempo Temperatura Precipitaciones Viento Presión Humedad
    00:00 +4°C° 0 mm 2 mps 677 mmHg 67%
    01:00 +4°C° 0 mm 2 mps 677 mmHg 64%
    02:00 +5°C° 0 mm 1 mps 677 mmHg 61%
    03:00 +5°C° 0 mm 1 mps 676 mmHg 57%
    04:00 +4°C° 0 mm 1 mps 676 mmHg 56%
    05:00 +4°C° 0 mm 1 mps 676 mmHg 55%
    06:00 +2°C° 0 mm 0 mps 676 mmHg 53%
    07:00 +5°C° 0 mm 1 mps 677 mmHg 47%
    08:00 +7°C° 0 mm 1 mps 677 mmHg 40%
    09:00 +9°C° 0 mm 2 mps 678 mmHg 34%
    10:00 +10°C° 0 mm 2 mps 678 mmHg 31%
    11:00 +11°C° 0 mm 3 mps 678 mmHg 29%
    12:00 +12°C° 0 mm 3 mps 678 mmHg 27%
    13:00 +12°C° 0 mm 3 mps 677 mmHg 28%
    14:00 +12°C° 0 mm 3 mps 677 mmHg 29%
    15:00 +12°C° 0 mm 3 mps 677 mmHg 30%
    16:00 +10°C° 0 mm 3 mps 676 mmHg 35%
    17:00 +9°C° 0 mm 3 mps 676 mmHg 41%
    18:00 +7°C° 0 mm 2 mps 676 mmHg 47%
    19:00 +7°C° 0 mm 2 mps 676 mmHg 47%
    20:00 +6°C° 0 mm 2 mps 676 mmHg 48%
    21:00 +6°C° 0 mm 2 mps 675 mmHg 48%
    22:00 +6°C° 0 mm 2 mps 675 mmHg 49%
    23:00 +6°C° 0 mm 2 mps 675 mmHg 51%

    Mañana, 19 Diciembre, Miércoles

    Tiempo Temperatura Precipitaciones Viento Presión Humedad
    00:00 +5°C° 0 mm 3 mps 675 mmHg 52%
    01:00 +4°C° 0 mm 3 mps 675 mmHg 55%
    02:00 +5°C° 0 mm 2 mps 675 mmHg 57%
    03:00 +5°C° 0 mm 2 mps 674 mmHg 60%
    04:00 +5°C° 0 mm 2 mps 674 mmHg 61%
    05:00 +5°C° 0 mm 2 mps 674 mmHg 63%
    06:00 +5°C° 0 mm 2 mps 674 mmHg 65%
    07:00 +6°C° 0 mm 2 mps 675 mmHg 59%
    08:00 +8°C° 0 mm 2 mps 676 mmHg 54%
    09:00 +10°C° 0 mm 2 mps 676 mmHg 48%
    10:00 +12°C° 0 mm 2 mps 676 mmHg 45%
    11:00 +12°C° 0 mm 3 mps 676 mmHg 41%
    12:00 +13°C° 0 mm 3 mps 676 mmHg 38%
    13:00 +13°C° 0 mm 3 mps 676 mmHg 38%
    14:00 +13°C° 0 mm 3 mps 676 mmHg 38%
    15:00 +13°C° 0 mm 3 mps 675 mmHg 38%
    16:00 +13°C° 0 mm 2 mps 675 mmHg 44%
    17:00 +10°C° 0 mm 2 mps 675 mmHg 49%
    18:00 +10°C° 0 mm 1 mps 674 mmHg 55%
    19:00 +9°C° 0 mm 1 mps 674 mmHg 55%
    20:00 +9°C° 0 mm 1 mps 675 mmHg 56%
    21:00 +9°C° 0 mm 1 mps 675 mmHg 56%
    22:00 +8°C° 0 mm 1 mps 675 mmHg 57%
    23:00 +8°C° 0 mm 1 mps 674 mmHg 58%

    Pasado mañana, 20 Diciembre, Jueves

    Tiempo Temperatura Precipitaciones Viento Presión Humedad
    00:00 +7°C° 0 mm 1 mps 674 mmHg 59%
    01:00 +7°C° 0 mm 1 mps 674 mmHg 59%
    02:00 +6°C° 0 mm 0 mps 674 mmHg 59%
    03:00 +5°C° 0 mm 0 mps 674 mmHg 59%
    04:00 +5°C° 0 mm 0 mps 674 mmHg 60%
    05:00 +5°C° 0 mm 0 mps 674 mmHg 60%
    06:00 +5°C° 0 mm 0 mps 674 mmHg 61%
    07:00 +7°C° 0 mm 0 mps 675 mmHg 55%
    08:00 +9°C° 0 mm 0 mps 676 mmHg 49%
    09:00 +10°C° 0 mm 0 mps 677 mmHg 43%
    10:00 +12°C° 0 mm 1 mps 676 mmHg 42%
    11:00 +13°C° 0 mm 1 mps 676 mmHg 42%
    12:00 +14°C° 0 mm 1 mps 676 mmHg 41%
    13:00 +14°C° 0 mm 2 mps 676 mmHg 42%
    14:00 +14°C° 0 mm 2 mps 676 mmHg 44%
    15:00 +13°C° 0 mm 3 mps 676 mmHg 45%
    16:00 +13°C° 0 mm 2 mps 676 mmHg 52%
    17:00 +10°C° 0 mm 2 mps 676 mmHg 58%
    18:00 +9°C° 0 mm 2 mps 676 mmHg 65%
    19:00 +9°C° 0 mm 2 mps 676 mmHg 69%
    20:00 +9°C° 0 mm 2 mps 677 mmHg 72%
    21:00 +9°C° 0 mm 2 mps 677 mmHg 76%
    22:00 +8°C° 0 mm 2 mps 677 mmHg 79%
    23:00 +8°C° 0 mm 2 mps 677 mmHg 83%

    21 Diciembre, Viernes

    Tiempo Temperatura Precipitaciones Viento Presión Humedad
    00:00 +7°C° 0 mm 2 mps 677 mmHg 86%
    01:00 +7°C° 0 mm 2 mps 677 mmHg 87%
    02:00 +7°C° 0 mm 2 mps 677 mmHg 88%
    03:00 +6°C° 0 mm 2 mps 677 mmHg 88%
    04:00 +6°C° 0 mm 2 mps 677 mmHg 88%
    05:00 +6°C° 0 mm 2 mps 678 mmHg 88%
    06:00 +6°C° 0 mm 1 mps 678 mmHg 88%
    07:00 +7°C° 0 mm 1 mps 678 mmHg 83%
    08:00 +8°C° 0 mm 1 mps 679 mmHg 77%
    09:00 +9°C° 0 mm 1 mps 680 mmHg 71%
    10:00 +10°C° 0 mm 1 mps 680 mmHg 66%
    11:00 +11°C° 0 mm 1 mps 680 mmHg 60%
    12:00 +11°C° 0 mm 1 mps 680 mmHg 55%
    13:00 +12°C° 0 mm 1 mps 680 mmHg 53%
    14:00 +12°C° 0 mm 1 mps 680 mmHg 52%
    15:00 +12°C° 0 mm 2 mps 680 mmHg 51%
    16:00 +11°C° 0 mm 1 mps 680 mmHg 55%
    17:00 +10°C° 0 mm 1 mps 679 mmHg 60%
    18:00 +9°C° 0 mm 1 mps 679 mmHg 64%
    19:00 +8°C° 0 mm 1 mps 679 mmHg 67%
    20:00 +7°C° 0 mm 0 mps 680 mmHg 70%
    21:00 +6°C° 0 mm 0 mps 680 mmHg 73%
    22:00 +6°C° 0 mm 0 mps 679 mmHg 74%
    23:00 +6°C° 0 mm 1 mps 679 mmHg 74%

    22 Diciembre, Sábado

    Tiempo Temperatura Precipitaciones Viento Presión Humedad
    00:00 +6°C° 0 mm 1 mps 679 mmHg 75%
    01:00 +6°C° 0 mm 1 mps 679 mmHg 76%
    02:00 +6°C° 0 mm 1 mps 679 mmHg 77%
    03:00 +6°C° 0 mm 1 mps 678 mmHg 78%
    04:00 +5°C° 0 mm 1 mps 678 mmHg 78%
    05:00 +5°C° 0 mm 1 mps 678 mmHg 79%
    06:00 +5°C° 0 mm 1 mps 679 mmHg 79%
    07:00 +6°C° 0 mm 1 mps 679 mmHg 70%
    08:00 +8°C° 0 mm 1 mps 680 mmHg 62%
    09:00 +9°C° 0 mm 2 mps 681 mmHg 54%
    10:00 +10°C° 0 mm 2 mps 680 mmHg 49%
    11:00 +12°C° 0 mm 2 mps 680 mmHg 44%
    12:00 +12°C° 0 mm 3 mps 680 mmHg 39%
    13:00 +13°C° 0 mm 2 mps 680 mmHg 39%
    14:00 +13°C° 0 mm 2 mps 680 mmHg 38%
    15:00 +13°C° 0 mm 2 mps 679 mmHg 38%
    16:00 +12°C° 0 mm 2 mps 679 mmHg 45%
    17:00 +10°C° 0 mm 1 mps 679 mmHg 52%
    18:00 +8°C° 0 mm 1 mps 678 mmHg 58%
    19:00 +8°C° 0 mm 1 mps 678 mmHg 60%
    20:00 +7°C° 0 mm 1 mps 678 mmHg 62%
    21:00 +7°C° 0 mm 1 mps 678 mmHg 63%
    22:00 +7°C° 0 mm 1 mps 678 mmHg 63%
    23:00 +6°C° 0 mm 1 mps 678 mmHg 63%

    23 Diciembre, Domingo

    Tiempo Temperatura Precipitaciones Viento Presión Humedad
    00:00 +6°C° 0 mm 1 mps 678 mmHg 63%
    01:00 +6°C° 0 mm 1 mps 677 mmHg 63%
    02:00 +6°C° 0 mm 1 mps 677 mmHg 62%
    03:00 +5°C° 0 mm 1 mps 677 mmHg 62%
    04:00 +5°C° 0 mm 1 mps 677 mmHg 62%
    05:00 +5°C° 0 mm 1 mps 677 mmHg 62%
    06:00 +5°C° 0 mm 1 mps 677 mmHg 63%
    07:00 +7°C° 0 mm 1 mps 678 mmHg 54%
    08:00 +9°C° 0 mm 1 mps 679 mmHg 45%
    09:00 +11°C° 0 mm 1 mps 679 mmHg 37%
    10:00 +12°C° 0 mm 1 mps 679 mmHg 34%
    11:00 +13°C° 0 mm 1 mps 679 mmHg 30%
    12:00 +15°C° 0 mm 1 mps 679 mmHg 27%
    13:00 +15°C° 0 mm 1 mps 679 mmHg 27%
    14:00 +15°C° 0 mm 1 mps 679 mmHg 27%
    15:00 +15°C° 0 mm 1 mps 679 mmHg 27%
    16:00 +13°C° 0 mm 1 mps 678 mmHg 33%
    17:00 +11°C° 0 mm 1 mps 678 mmHg 38%
    18:00 +8°C° 0 mm 0 mps 677 mmHg 44%
    19:00 +8°C° 0 mm 0 mps 677 mmHg 44%
    20:00 +7°C° 0 mm 0 mps 677 mmHg 44%
    21:00 +7°C° 0 mm 0 mps 677 mmHg 44%
    22:00 +7°C° 0 mm 0 mps 677 mmHg 44%
    23:00 +6°C° 0 mm 0 mps 677 mmHg 43%
    Mostrar más